Regional Weather Roundup
Issued by NWS

Home | Current Version | Previous Version | Graphics & Text | Print | Product List | Glossary On
Versions: 1 2 3 4 5 6 7 8 9 10 11 12 13 14 15 16 17 18 19 20 21 22 23 24 25 26 27 28 29 30 31 32 33 34 35 36 37 38 39 40 41 42 43 44 45 46 47 48 49 50
000
ASUS43 KLOT 290203
RWRIL

ILLINOIS REGIONAL WEATHER ROUNDUP
NATIONAL WEATHER SERVICE CHICAGO/ROMEOVILLE IL
900 PM CDT WED SEP 28 2016

NOTE: "FAIR" INDICATES FEW OR NO CLOUDS BELOW 12,000 FEET WITH NO
SIGNIFICANT WEATHER AND/OR OBSTRUCTIONS TO VISIBILITY.

* THESE STATIONS ARE NOT UNDER NWS QUALITY CONTROL. THEY ALSO MAY NOT
  REPORT WEATHER SUCH AS PRECIPITATION OR FOG.

ILZ001-002-007-009-015-016-024-290300-
NORTHWEST ILLINOIS

CITY           SKY/WX    TMP DP  RH WIND       PRES   REMARKS
MOLINE         CLEAR     58  49  72 N7        30.17R
STERLING*      CLEAR     55  51  86 N8        30.15R
$$

ILZ003-004-008-010-011-017-018-290300-
NORTH CENTRAL ILLINOIS

CITY           SKY/WX    TMP DP  RH WIND       PRES   REMARKS
ROCKFORD       CLEAR     55  48  77 N9        30.17R
FREEPORT*      CLEAR     52  49  91 NW8       30.18R
ROCHELLE*      CLEAR     52  49  88 N8        30.14R
$$

ILZ005-006-012>014-019>023-290300-
NORTHEAST ILLINOIS

CITY           SKY/WX    TMP DP  RH WIND       PRES   REMARKS
CHICAGO-OHARE  CLOUDY    56  52  86 N17G25    30.06R
CHICAGO-MIDWAY HVY RAIN  56  52  86 N12G20    30.05S FOG
AURORA         MOCLDY    58  49  72 N14       30.10S
LANSING*       HVY RAIN  55  55 100 NE8       30.03S
WAUKEGAN       CLOUDY    57  54  89 N7        30.09S
DUPAGE AIRPORT CLOUDY    56  51  84 N16       30.08S
KANKAKEE*      RAIN      55  53  91 NW13      30.05R
WHEELING       CLOUDY    56  53  90 N14G22    30.09S
NORTHERLY ISL    N/A     56  53  90 NE16        N/A
$$

LMZ740>746-290300-
SOUTHERN LAKE MICHIGAN

STATION/POSITION SKY/WX   TEMP    WIND        PRES    VSBY  WAVE
                          AIR SEA DIR/SP/G                  HT/PER
                          (F)     (DEG/KT/KT) (MB)    (MI)  (FT/S)
SOUTHERN BUOY              65 69   60/ 25/ 31 1016.6          5/ 5
WILMETTE HARBOR            57 57   10/ 19/ 25   N/A           8/ 7
HARRISON CRIB              58     360/ 20/ 22   N/A
BURNHAM HARBOR             56     270/ 17/ 21   N/A
CALUMET HARBOR             57     320/ 12/ 21 1016.3F
BURNS HARBOR               61      50/ 26/ 29 1016.6R
MICHIGAN CITY              60      30/ 26/ 29   N/A
MICHIGAN CITY 6N           61 66   50/ 21/ 29   N/A           7/ 6
ST. JOSEPH                 60 64   30/ 17/ 23 1016.8R         5/ 6
$$

ILZ025>027-034>036-040-047-049-050-058-095>099-290300-
WEST-CENTRAL ILLINOIS

CITY           SKY/WX    TMP DP  RH WIND       PRES   REMARKS
QUINCY         CLOUDY    58  50  75 NW8       30.15R
GALESBURG*     CLEAR     54  49  82 N8        30.16R
MACOMB*        CLEAR     56  49  75 N10       30.17R
$$

ILZ028>032-037-038-041>044-048-051>054-059>061-290300-
CENTRAL ILLINOIS

CITY           SKY/WX    TMP DP  RH WIND       PRES   REMARKS
BLOOMINGTON    LGT RAIN  56  50  80 N12       30.09R
DECATUR        CLOUDY    59  49  69 NW14      30.08R
PEORIA         CLOUDY    57  50  77 N7        30.12R
LINCOLN*       CLOUDY    57  51  79 NW5       30.10R
SPRINGFIELD    CLEAR     57  50  77 NW7       30.11R
TAYLORVILLE    NOT AVBL
$$

ILZ033-039-045-046-055>057-062-063-290300-
EAST-CENTRAL ILLINOIS

CITY           SKY/WX    TMP DP  RH WIND       PRES   REMARKS
CHAMPAIGN      CLOUDY    55  50  83 NW10      30.05S
MATTOON        CLOUDY    57  49  74 NW13      30.05R
$$

ILZ079-100>102-290300-
SOUTHWEST ILLINOIS

CITY           SKY/WX    TMP DP  RH WIND       PRES   REMARKS
BELLEVILLE     CLEAR     56  48  76 NW7       30.10R
CAHOKIA*       PTCLDY    59  46  62 NW8       30.12R
SPARTA*        PTCLDY    55  47  74 NW5       30.11R
$$

ILZ064>066-069>071-074>076-080>082-084>086-088>090-092>094-290300-
SOUTH-CENTRAL ILLINOIS

CITY           SKY/WX    TMP DP  RH WIND       PRES   REMARKS
CARBONDALE     CLEAR     53  48  83 NW3       30.09R
MT. VERNON     PTCLDY    54  45  71 CALM      30.09R
CENTRALIA*     PTCLDY    56  50  79 NW7       30.08R
SALEM*         PTCLDY    56  49  77 CALM      30.08S
METROPOLIS*    CLEAR     56  46  70 CALM      30.09R
$$

ILZ067-068-072-073-078-083-087-091-290300-
SOUTHEAST ILLINOIS

CITY           SKY/WX    TMP DP  RH WIND       PRES   REMARKS
LAWRENCEVILLE  CLOUDY    57  48  72 NW10      30.04R
FLORA*         CLEAR     58  49  73 NW7       30.07R
HARRISBURG*    CLEAR     56  48  76 NW6       30.08R
ROBINSON*      CLOUDY    56  49  79 NW7       30.05R
$$

ABBREVIATIONS USED IN REMARKS
   TC - TEMPERATURE IN CELSIUS
  WCI - WIND CHILL INDEX
   HX - HEAT INDEX
  VSB - VISIBILITY
$$





USA.gov is the U.S. government's official web portal to all federal, state and local government web resources and services.